Time,TemperatureF,DewpointF,PressureIn,WindDirection,WindDirectionDegrees,WindSpeedMPH,WindSpeedGustMPH,Humidity,HourlyPrecipIn,Conditions,Clouds,dailyrainin,SoftwareType,DateUTC
2013-10-15 00:02:00,44.7,42.2,30.36,NNW,332,0.0,2.0,91,0.00,,,0.00,Wunderground v.1.15,2013-10-15 07:02:00,
2013-10-15 00:07:00,45.0,42.5,30.36,North,9,1.0,5.0,91,0.00,,,0.00,Wunderground v.1.15,2013-10-15 07:07:00,
2013-10-15 00:14:00,44.7,42.2,30.36,NNE,15,2.0,5.0,91,0.00,,,0.00,Wunderground v.1.15,2013-10-15 07:14:00,
2013-10-15 00:20:00,44.7,42.2,30.36,NE,51,2.0,3.0,91,0.00,,,0.00,Wunderground v.1.15,2013-10-15 07:20:00,
2013-10-15 00:26:00,44.8,42.3,30.36,North,11,2.0,2.0,91,0.00,,,0.00,Wunderground v.1.15,2013-10-15 07:26:00,
2013-10-15 00:32:00,45.0,42.8,30.36,NE,42,2.0,5.0,92,0.00,,,0.00,Wunderground v.1.15,2013-10-15 07:32:00,
2013-10-15 00:37:00,45.0,42.5,30.36,NNE,17,2.0,2.0,91,0.00,,,0.00,Wunderground v.1.15,2013-10-15 07:37:00,
2013-10-15 00:44:00,44.7,42.2,30.36,NNE,28,1.0,2.0,91,0.00,,,0.00,Wunderground v.1.15,2013-10-15 07:44:00,
2013-10-15 00:50:00,44.3,41.8,30.36,NNE,27,1.0,2.0,91,0.00,,,0.00,Wunderground v.1.15,2013-10-15 07:50:00,
2013-10-15 00:56:00,44.1,41.9,30.36,NNE,19,1.0,1.0,92,0.00,,,0.00,Wunderground v.1.15,2013-10-15 07:56:00,
2013-10-15 01:02:00,43.7,41.5,30.36,NNE,19,0.0,1.0,92,0.00,,,0.00,Wunderground v.1.15,2013-10-15 08:02:00,
2013-10-15 01:07:00,43.4,41.5,30.36,NNE,19,0.0,0.0,93,0.00,,,0.00,Wunderground v.1.15,2013-10-15 08:07:00,
2013-10-15 01:14:00,43.1,40.9,30.36,NNE,15,0.0,3.0,92,0.00,,,0.00,Wunderground v.1.15,2013-10-15 08:14:00,
2013-10-15 01:20:00,42.5,40.3,30.36,North,360,1.0,2.0,92,0.00,,,0.00,Wunderground v.1.15,2013-10-15 08:20:00,
2013-10-15 01:26:00,42.4,40.5,30.36,North,360,0.0,0.0,93,0.00,,,0.00,Wunderground v.1.15,2013-10-15 08:26:00,
2013-10-15 01:32:00,42.7,41.1,30.36,WSW,256,0.0,0.0,94,0.00,,,0.00,Wunderground v.1.15,2013-10-15 08:32:00,
2013-10-15 01:37:00,42.8,41.2,30.36,West,267,0.0,0.0,94,0.00,,,0.00,Wunderground v.1.15,2013-10-15 08:37:00,
2013-10-15 01:44:00,42.4,40.5,30.36,West,267,0.0,1.0,93,0.00,,,0.00,Wunderground v.1.15,2013-10-15 08:44:00,
2013-10-15 01:50:00,42.5,40.9,30.36,West,267,0.0,0.0,94,0.00,,,0.00,Wunderground v.1.15,2013-10-15 08:50:00,
2013-10-15 01:55:00,42.5,40.9,30.36,NW,314,0.0,2.0,94,0.00,,,0.00,Wunderground v.1.15,2013-10-15 08:55:00,
2013-10-15 02:00:00,42.0,40.1,30.36,North,355,1.0,3.0,93,0.00,,,0.00,Wunderground v.1.15,2013-10-15 09:00:00,
2013-10-15 02:05:00,41.5,39.6,30.36,North,5,2.0,2.0,93,0.00,,,0.00,Wunderground v.1.15,2013-10-15 09:05:00,
2013-10-15 02:10:00,41.8,40.2,30.36,North,5,2.0,4.0,94,0.00,,,0.00,Wunderground v.1.15,2013-10-15 09:10:00,
2013-10-15 02:16:00,42.0,40.7,30.35,NNE,16,2.0,2.0,95,0.00,,,0.00,Wunderground v.1.15,2013-10-15 09:16:00,
2013-10-15 02:22:00,42.3,41.0,30.35,NE,47,1.0,2.0,95,0.00,,,0.00,Wunderground v.1.15,2013-10-15 09:22:00,
2013-10-15 02:28:00,42.9,41.6,30.35,NNE,26,1.0,2.0,95,0.00,,,0.00,Wunderground v.1.15,2013-10-15 09:28:00,
2013-10-15 02:34:00,43.1,41.8,30.35,NNE,19,2.0,4.0,95,0.00,,,0.00,Wunderground v.1.15,2013-10-15 09:34:00,
2013-10-15 02:39:00,43.5,42.2,30.35,ENE,59,2.0,2.0,95,0.00,,,0.00,Wunderground v.1.15,2013-10-15 09:39:00,
2013-10-15 02:45:00,43.2,41.9,30.35,NE,48,1.0,1.0,95,0.00,,,0.00,Wunderground v.1.15,2013-10-15 09:45:00,
2013-10-15 02:52:00,43.0,41.4,30.35,NE,38,0.0,1.0,94,0.00,,,0.00,Wunderground v.1.15,2013-10-15 09:52:00,
2013-10-15 02:58:00,42.8,41.2,30.35,NE,38,0.0,0.0,94,0.00,,,0.00,Wunderground v.1.15,2013-10-15 09:58:00,
2013-10-15 03:04:00,42.5,40.9,30.35,North,5,0.0,1.0,94,0.00,,,0.00,Wunderground v.1.15,2013-10-15 10:04:00,
2013-10-15 03:09:00,42.4,40.8,30.35,North,5,0.0,0.0,94,0.00,,,0.00,Wunderground v.1.15,2013-10-15 10:09:00,
2013-10-15 03:15:00,42.2,40.6,30.35,North,5,0.0,1.0,94,0.00,,,0.00,Wunderground v.1.15,2013-10-15 10:15:00,
2013-10-15 03:22:00,41.6,40.0,30.34,NE,52,1.0,2.0,94,0.00,,,0.00,Wunderground v.1.15,2013-10-15 10:22:00,
2013-10-15 03:28:00,41.5,39.9,30.34,NE,53,1.0,1.0,94,0.00,,,0.00,Wunderground v.1.15,2013-10-15 10:28:00,
2013-10-15 03:34:00,41.6,40.3,30.34,SSW,195,0.0,2.0,95,0.00,,,0.00,Wunderground v.1.15,2013-10-15 10:34:00,
2013-10-15 03:39:00,41.9,40.6,30.34,SSW,195,0.0,0.0,95,0.00,,,0.00,Wunderground v.1.15,2013-10-15 10:39:00,
2013-10-15 03:45:00,41.8,40.5,30.34,SSW,195,0.0,0.0,95,0.00,,,0.00,Wunderground v.1.15,2013-10-15 10:45:00,
2013-10-15 03:51:00,41.7,40.4,30.34,SSW,195,0.0,0.0,95,0.00,,,0.00,Wunderground v.1.15,2013-10-15 10:51:00,
2013-10-15 03:57:00,41.9,40.6,30.34,SSW,195,0.0,0.0,95,0.00,,,0.00,Wunderground v.1.15,2013-10-15 10:57:00,
2013-10-15 04:03:00,41.6,40.3,30.34,SE,132,0.0,1.0,95,0.00,,,0.00,Wunderground v.1.15,2013-10-15 11:03:00,
2013-10-15 04:08:00,40.9,39.3,30.34,SE,132,0.0,0.0,94,0.00,,,0.00,Wunderground v.1.15,2013-10-15 11:08:00,
2013-10-15 04:14:00,40.5,38.9,30.34,SE,132,0.0,0.0,94,0.00,,,0.00,Wunderground v.1.15,2013-10-15 11:14:00,
2013-10-15 04:20:00,40.3,39.0,30.34,NNE,28,1.0,3.0,95,0.00,,,0.00,Wunderground v.1.15,2013-10-15 11:20:00,
2013-10-15 04:26:00,39.7,38.1,30.33,NE,36,2.0,2.0,94,0.00,,,0.00,Wunderground v.1.15,2013-10-15 11:26:00,
2013-10-15 04:32:00,39.8,38.5,30.33,ENE,61,1.0,2.0,95,0.00,,,0.00,Wunderground v.1.15,2013-10-15 11:32:00,
2013-10-15 04:38:00,39.7,38.4,30.33,NNE,23,0.0,1.0,95,0.00,,,0.00,Wunderground v.1.15,2013-10-15 11:38:00,
2013-10-15 04:43:00,40.0,39.0,30.33,North,9,1.0,3.0,96,0.00,,,0.00,Wunderground v.1.15,2013-10-15 11:43:00,
2013-10-15 04:49:00,40.2,39.2,30.33,North,5,1.0,1.0,96,0.00,,,0.00,Wunderground v.1.15,2013-10-15 11:49:00,
2013-10-15 04:55:00,40.3,39.3,30.33,North,5,1.0,1.0,96,0.00,,,0.00,Wunderground v.1.15,2013-10-15 11:55:00,
2013-10-15 05:01:00,40.5,39.4,30.33,North,5,0.0,1.0,96,0.00,,,0.00,Wunderground v.1.15,2013-10-15 12:01:00,
2013-10-15 05:07:00,40.9,39.8,30.33,WNW,284,0.0,0.0,96,0.00,,,0.00,Wunderground v.1.15,2013-10-15 12:07:00,
2013-10-15 05:13:00,41.0,39.9,30.33,WNW,284,0.0,0.0,96,0.00,,,0.00,Wunderground v.1.15,2013-10-15 12:13:00,
2013-10-15 05:18:00,41.1,40.0,30.33,WNW,284,0.0,0.0,96,0.00,,,0.00,Wunderground v.1.15,2013-10-15 12:18:00,
2013-10-15 05:24:00,41.1,40.0,30.33,WNW,284,0.0,1.0,96,0.00,,,0.00,Wunderground v.1.15,2013-10-15 12:24:00,
2013-10-15 05:30:00,41.1,40.0,30.33,WNW,284,0.0,1.0,96,0.00,,,0.00,Wunderground v.1.15,2013-10-15 12:30:00,
2013-10-15 05:36:00,41.2,40.1,30.33,WNW,284,0.0,0.0,96,0.00,,,0.00,Wunderground v.1.15,2013-10-15 12:36:00,
2013-10-15 05:42:00,41.0,39.9,30.33,ENE,65,0.0,2.0,96,0.00,,,0.00,Wunderground v.1.15,2013-10-15 12:42:00,
2013-10-15 05:48:00,40.9,39.8,30.33,NNW,328,1.0,2.0,96,0.00,,,0.00,Wunderground v.1.15,2013-10-15 12:48:00,
2013-10-15 05:54:00,41.0,39.9,30.33,NNE,13,1.0,2.0,96,0.00,,,0.00,Wunderground v.1.15,2013-10-15 12:54:00,
2013-10-15 06:00:00,40.7,39.6,30.33,NNW,336,1.0,2.0,96,0.00,,,0.00,Wunderground v.1.15,2013-10-15 13:00:00,
2013-10-15 06:05:00,40.5,39.4,30.33,NNE,19,2.0,2.0,96,0.00,,,0.00,Wunderground v.1.15,2013-10-15 13:05:00,
2013-10-15 06:11:00,40.6,39.5,30.33,NNE,26,2.0,3.0,96,0.00,,,0.00,Wunderground v.1.15,2013-10-15 13:11:00,
2013-10-15 06:16:00,40.5,39.4,30.33,NNE,17,1.0,2.0,96,0.00,,,0.00,Wunderground v.1.15,2013-10-15 13:16:00,
2013-10-15 06:22:00,40.6,39.5,30.33,NE,39,1.0,2.0,96,0.00,,,0.00,Wunderground v.1.15,2013-10-15 13:22:00,
2013-10-15 06:28:00,41.0,39.9,30.32,NE,34,1.0,2.0,96,0.00,,,0.00,Wunderground v.1.15,2013-10-15 13:28:00,
2013-10-15 06:34:00,41.2,40.1,30.32,NE,44,2.0,3.0,96,0.00,,,0.00,Wunderground v.1.15,2013-10-15 13:34:00,
2013-10-15 06:39:00,41.3,40.2,30.32,NNE,23,2.0,3.0,96,0.00,,,0.00,Wunderground v.1.15,2013-10-15 13:39:00,
2013-10-15 06:45:00,41.4,40.3,30.33,North,9,2.0,3.0,96,0.00,,,0.00,Wunderground v.1.15,2013-10-15 13:45:00,
2013-10-15 06:52:00,41.1,40.0,30.33,ENE,64,2.0,5.0,96,0.00,,,0.00,Wunderground v.1.15,2013-10-15 13:52:00,
2013-10-15 06:58:00,41.1,40.0,30.32,NE,36,2.0,2.0,96,0.00,,,0.00,Wunderground v.1.15,2013-10-15 13:58:00,
2013-10-15 07:04:00,41.6,40.5,30.33,NE,52,2.0,5.0,96,0.00,,,0.00,Wunderground v.1.15,2013-10-15 14:04:00,
2013-10-15 07:10:00,41.9,41.1,30.32,NE,42,2.0,3.0,97,0.00,,,0.00,Wunderground v.1.15,2013-10-15 14:10:00,
2013-10-15 07:15:00,41.6,40.5,30.32,ENE,66,2.0,2.0,96,0.00,,,0.00,Wunderground v.1.15,2013-10-15 14:15:00,
2013-10-15 07:22:00,41.6,40.5,30.32,NNE,28,2.0,3.0,96,0.00,,,0.00,Wunderground v.1.15,2013-10-15 14:22:00,
2013-10-15 07:28:00,40.9,39.8,30.32,North,355,2.0,3.0,96,0.00,,,0.00,Wunderground v.1.15,2013-10-15 14:28:00,
2013-10-15 07:34:00,40.2,39.2,30.32,North,355,2.0,3.0,96,0.00,,,0.00,Wunderground v.1.15,2013-10-15 14:34:00,
2013-10-15 07:39:00,40.1,39.1,30.33,North,355,1.0,2.0,96,0.00,,,0.00,Wunderground v.1.15,2013-10-15 14:39:00,
2013-10-15 07:45:00,40.0,39.0,30.33,North,355,0.0,0.0,96,0.00,,,0.00,Wunderground v.1.15,2013-10-15 14:45:00,
2013-10-15 07:52:00,40.4,39.4,30.32,North,355,0.0,2.0,96,0.00,,,0.00,Wunderground v.1.15,2013-10-15 14:52:00,
2013-10-15 07:58:00,40.9,39.8,30.32,NNE,25,1.0,3.0,96,0.00,,,0.00,Wunderground v.1.15,2013-10-15 14:58:00,
2013-10-15 08:04:00,41.2,40.4,30.32,NE,42,2.0,3.0,97,0.00,,,0.00,Wunderground v.1.15,2013-10-15 15:04:00,
2013-10-15 08:10:00,41.2,40.4,30.33,NNW,340,1.0,3.0,97,0.00,,,0.00,Wunderground v.1.15,2013-10-15 15:10:00,
2013-10-15 08:15:00,41.4,40.3,30.33,NNE,30,2.0,2.0,96,0.00,,,0.00,Wunderground v.1.15,2013-10-15 15:15:00,
2013-10-15 08:22:00,41.6,40.5,30.32,NNE,19,1.0,2.0,96,0.00,,,0.00,Wunderground v.1.15,2013-10-15 15:22:00,
2013-10-15 08:28:00,41.5,40.4,30.32,North,355,0.0,1.0,96,0.00,,,0.00,Wunderground v.1.15,2013-10-15 15:28:00,
2013-10-15 08:34:00,41.7,40.9,30.32,North,350,1.0,2.0,97,0.00,,,0.00,Wunderground v.1.15,2013-10-15 15:34:00,
2013-10-15 08:40:00,42.0,41.2,30.32,NNE,31,1.0,3.0,97,0.00,,,0.00,Wunderground v.1.15,2013-10-15 15:40:00,
2013-10-15 08:45:00,42.0,41.2,30.32,NNE,31,1.0,1.0,97,0.00,,,0.00,Wunderground v.1.15,2013-10-15 15:45:00,
2013-10-15 08:52:00,42.0,41.2,30.33,NE,49,0.0,2.0,97,0.00,,,0.00,Wunderground v.1.15,2013-10-15 15:52:00,
2013-10-15 08:58:00,42.3,41.5,30.33,NNE,23,1.0,2.0,97,0.00,,,0.00,Wunderground v.1.15,2013-10-15 15:58:00,
2013-10-15 09:04:00,42.5,41.7,30.33,ESE,122,0.0,2.0,97,0.00,,,0.00,Wunderground v.1.15,2013-10-15 16:04:00,
2013-10-15 09:10:00,42.7,41.9,30.33,ESE,122,0.0,0.0,97,0.00,,,0.00,Wunderground v.1.15,2013-10-15 16:10:00,
2013-10-15 09:15:00,42.9,42.1,30.33,East,101,0.0,0.0,97,0.00,,,0.00,Wunderground v.1.15,2013-10-15 16:15:00,
2013-10-15 09:22:00,43.3,42.5,30.33,ENE,63,0.0,0.0,97,0.00,,,0.00,Wunderground v.1.15,2013-10-15 16:22:00,
2013-10-15 09:28:00,43.6,42.8,30.33,NE,41,0.0,2.0,97,0.00,,,0.00,Wunderground v.1.15,2013-10-15 16:28:00,
2013-10-15 09:33:00,43.8,43.0,30.33,East,96,0.0,2.0,97,0.00,,,0.00,Wunderground v.1.15,2013-10-15 16:33:00,
2013-10-15 09:39:00,44.3,43.5,30.33,East,80,1.0,2.0,97,0.00,,,0.00,Wunderground v.1.15,2013-10-15 16:39:00,
2013-10-15 09:45:00,44.9,44.1,30.33,North,5,1.0,1.0,97,0.00,,,0.00,Wunderground v.1.15,2013-10-15 16:45:00,
2013-10-15 09:50:00,45.2,44.4,30.33,East,83,0.0,1.0,97,0.00,,,0.00,Wunderground v.1.15,2013-10-15 16:50:00,
2013-10-15 09:57:00,45.5,44.7,30.32,ENE,59,0.0,1.0,97,0.00,,,0.00,Wunderground v.1.15,2013-10-15 16:57:00,
2013-10-15 10:03:00,45.9,45.1,30.32,NNE,32,1.0,6.0,97,0.00,,,0.00,Wunderground v.1.15,2013-10-15 17:03:00,
2013-10-15 10:09:00,46.6,45.5,30.32,ENE,74,1.0,1.0,96,0.00,,,0.00,Wunderground v.1.15,2013-10-15 17:09:00,
2013-10-15 10:15:00,47.4,46.0,30.32,NNW,348,0.0,0.0,95,0.00,,,0.00,Wunderground v.1.15,2013-10-15 17:15:00,
2013-10-15 10:20:00,48.1,46.5,30.31,ENE,69,0.0,1.0,94,0.00,,,0.00,Wunderground v.1.15,2013-10-15 17:20:00,
2013-10-15 10:27:00,48.8,46.3,30.31,NE,46,1.0,1.0,91,0.00,,,0.00,Wunderground v.1.15,2013-10-15 17:27:00,
2013-10-15 10:33:00,49.7,46.9,30.31,East,84,0.0,1.0,90,0.00,,,0.00,Wunderground v.1.15,2013-10-15 17:33:00,
2013-10-15 10:39:00,50.2,46.8,30.31,ENE,78,0.0,0.0,88,0.00,,,0.00,Wunderground v.1.15,2013-10-15 17:39:00,
2013-10-15 10:45:00,50.8,46.8,30.31,East,80,0.0,0.0,86,0.00,,,0.00,Wunderground v.1.15,2013-10-15 17:45:00,
2013-10-15 10:50:00,51.5,47.1,30.31,ENE,75,0.0,0.0,85,0.00,,,0.00,Wunderground v.1.15,2013-10-15 17:50:00,
2013-10-15 10:57:00,51.9,46.9,30.31,NNE,26,0.0,1.0,83,0.00,,,0.00,Wunderground v.1.15,2013-10-15 17:57:00,
2013-10-15 11:03:00,52.2,47.5,30.31,ENE,73,0.0,1.0,84,0.00,,,0.00,Wunderground v.1.15,2013-10-15 18:03:00,
2013-10-15 11:08:00,52.6,47.3,30.31,ENE,64,0.0,1.0,82,0.00,,,0.00,Wunderground v.1.15,2013-10-15 18:08:00,
2013-10-15 11:14:00,52.8,47.1,30.31,ENE,59,1.0,3.0,81,0.00,,,0.00,Wunderground v.1.15,2013-10-15 18:14:00,
2013-10-15 11:19:00,53.3,47.6,30.31,NE,55,0.0,1.0,81,0.00,,,0.00,Wunderground v.1.15,2013-10-15 18:19:00,
2013-10-15 11:25:00,53.7,47.3,30.31,East,83,0.0,1.0,79,0.00,,,0.00,Wunderground v.1.15,2013-10-15 18:25:00,
2013-10-15 11:31:00,53.7,47.0,30.31,East,96,1.0,2.0,78,0.00,,,0.00,Wunderground v.1.15,2013-10-15 18:31:00,
2013-10-15 11:37:00,53.8,47.1,30.30,ENE,59,1.0,3.0,78,0.00,,,0.00,Wunderground v.1.15,2013-10-15 18:37:00,
2013-10-15 11:43:00,53.8,47.4,30.30,NE,39,1.0,5.0,79,0.00,,,0.00,Wunderground v.1.15,2013-10-15 18:43:00,
2013-10-15 11:48:00,54.0,47.3,30.31,NE,38,1.0,2.0,78,0.00,,,0.00,Wunderground v.1.15,2013-10-15 18:48:00,
2013-10-15 11:54:00,54.0,47.3,30.30,NE,44,2.0,2.0,78,0.00,,,0.00,Wunderground v.1.15,2013-10-15 18:54:00,
2013-10-15 12:00:00,54.5,48.1,30.30,ENE,59,2.0,3.0,79,0.00,,,0.00,Wunderground v.1.15,2013-10-15 19:00:00,
2013-10-15 12:05:00,55.0,48.3,30.30,North,351,1.0,2.0,78,0.00,,,0.00,Wunderground v.1.15,2013-10-15 19:05:00,
2013-10-15 12:11:00,55.6,48.5,30.30,NE,36,2.0,6.0,77,0.00,,,0.00,Wunderground v.1.15,2013-10-15 19:11:00,
2013-10-15 12:17:00,56.1,48.3,30.29,ENE,61,2.0,2.0,75,0.00,,,0.00,Wunderground v.1.15,2013-10-15 19:17:00,
2013-10-15 12:22:00,56.3,48.1,30.29,NE,54,2.0,4.0,74,0.00,,,0.00,Wunderground v.1.15,2013-10-15 19:22:00,
2013-10-15 12:28:00,56.6,48.8,30.29,NE,54,1.0,2.0,75,0.00,,,0.00,Wunderground v.1.15,2013-10-15 19:28:00,
2013-10-15 12:34:00,57.1,49.2,30.28,NNE,23,2.0,2.0,75,0.00,,,0.00,Wunderground v.1.15,2013-10-15 19:34:00,
2013-10-15 12:40:00,57.8,48.5,30.28,NNE,17,1.0,2.0,71,0.00,,,0.00,Wunderground v.1.15,2013-10-15 19:40:00,
2013-10-15 12:46:00,58.2,47.3,30.28,NE,41,1.0,3.0,67,0.00,,,0.00,Wunderground v.1.15,2013-10-15 19:46:00,
2013-10-15 12:51:00,58.7,47.8,30.28,NE,51,1.0,3.0,67,0.00,,,0.00,Wunderground v.1.15,2013-10-15 19:51:00,
2013-10-15 12:57:00,58.9,48.0,30.27,NNE,28,1.0,1.0,67,0.00,,,0.00,Wunderground v.1.15,2013-10-15 19:57:00,
2013-10-15 13:03:00,58.9,45.5,30.27,NE,55,1.0,3.0,61,0.00,,,0.00,Wunderground v.1.15,2013-10-15 20:03:00,
2013-10-15 13:09:00,59.3,45.8,30.26,NE,51,1.0,2.0,61,0.00,,,0.00,Wunderground v.1.15,2013-10-15 20:09:00,
2013-10-15 13:15:00,59.9,46.8,30.26,ENE,66,0.0,0.0,62,0.00,,,0.00,Wunderground v.1.15,2013-10-15 20:15:00,
2013-10-15 13:21:00,59.9,45.5,30.25,East,86,1.0,3.0,59,0.00,,,0.00,Wunderground v.1.15,2013-10-15 20:21:00,
2013-10-15 13:26:00,59.5,46.0,30.26,ENE,69,2.0,2.0,61,0.00,,,0.00,Wunderground v.1.15,2013-10-15 20:26:00,
2013-10-15 13:32:00,59.7,45.3,30.25,East,80,2.0,2.0,59,0.00,,,0.00,Wunderground v.1.15,2013-10-15 20:32:00,
2013-10-15 13:38:00,59.9,46.0,30.25,NNW,344,1.0,2.0,60,0.00,,,0.00,Wunderground v.1.15,2013-10-15 20:38:00,
2013-10-15 13:44:00,60.4,46.4,30.25,ENE,63,1.0,2.0,60,0.00,,,0.00,Wunderground v.1.15,2013-10-15 20:44:00,
2013-10-15 13:50:00,60.8,45.9,30.24,East,84,0.0,2.0,58,0.00,,,0.00,Wunderground v.1.15,2013-10-15 20:50:00,
2013-10-15 13:55:00,61.1,46.2,30.24,ENE,69,1.0,2.0,58,0.00,,,0.00,Wunderground v.1.15,2013-10-15 20:55:00,
2013-10-15 14:01:00,61.5,46.6,30.24,NE,50,1.0,2.0,58,0.00,,,0.00,Wunderground v.1.15,2013-10-15 21:01:00,
2013-10-15 14:07:00,62.0,46.6,30.23,SE,130,0.0,0.0,57,0.00,,,0.00,Wunderground v.1.15,2013-10-15 21:07:00,
2013-10-15 14:13:00,62.5,47.1,30.23,NE,55,0.0,2.0,57,0.00,,,0.00,Wunderground v.1.15,2013-10-15 21:13:00,
2013-10-15 14:19:00,62.8,44.9,30.23,East,93,1.0,2.0,52,0.00,,,0.00,Wunderground v.1.15,2013-10-15 21:19:00,
2013-10-15 14:25:00,63.2,45.3,30.23,North,5,0.0,3.0,52,0.00,,,0.00,Wunderground v.1.15,2013-10-15 21:25:00,
2013-10-15 14:31:00,63.6,46.1,30.23,North,5,0.0,3.0,53,0.00,,,0.00,Wunderground v.1.15,2013-10-15 21:31:00,
2013-10-15 14:37:00,63.7,44.7,30.23,ENE,63,1.0,1.0,50,0.00,,,0.00,Wunderground v.1.15,2013-10-15 21:37:00,
2013-10-15 14:43:00,63.8,42.6,30.23,ENE,60,1.0,2.0,46,0.00,,,0.00,Wunderground v.1.15,2013-10-15 21:43:00,
2013-10-15 14:49:00,63.7,43.1,30.22,ENE,74,1.0,1.0,47,0.00,,,0.00,Wunderground v.1.15,2013-10-15 21:49:00,
2013-10-15 14:54:00,63.5,42.9,30.22,ENE,61,1.0,2.0,47,0.00,,,0.00,Wunderground v.1.15,2013-10-15 21:54:00,
2013-10-15 14:59:00,63.2,45.3,30.22,ENE,61,0.0,0.0,52,0.00,,,0.00,Wunderground v.1.15,2013-10-15 21:59:00,
2013-10-15 15:05:00,63.2,44.8,30.22,ENE,61,0.0,0.0,51,0.00,,,0.00,Wunderground v.1.15,2013-10-15 22:05:00,
2013-10-15 15:11:00,63.2,46.3,30.22,SSW,200,0.0,2.0,54,0.00,,,0.00,Wunderground v.1.15,2013-10-15 22:11:00,
2013-10-15 15:17:00,63.2,45.8,30.22,ENE,61,0.0,4.0,53,0.00,,,0.00,Wunderground v.1.15,2013-10-15 22:17:00,
2013-10-15 15:23:00,63.2,45.8,30.22,NNW,338,0.0,4.0,53,0.00,,,0.00,Wunderground v.1.15,2013-10-15 22:23:00,
2013-10-15 15:28:00,63.2,44.8,30.22,ENE,75,0.0,2.0,51,0.00,,,0.00,Wunderground v.1.15,2013-10-15 22:28:00,
2013-10-15 15:35:00,63.3,45.4,30.22,ENE,65,1.0,1.0,52,0.00,,,0.00,Wunderground v.1.15,2013-10-15 22:35:00,
2013-10-15 15:41:00,63.3,45.9,30.22,NE,42,0.0,1.0,53,0.00,,,0.00,Wunderground v.1.15,2013-10-15 22:41:00,
2013-10-15 15:47:00,63.0,44.1,30.21,NE,43,0.0,1.0,50,0.00,,,0.00,Wunderground v.1.15,2013-10-15 22:47:00,
2013-10-15 15:53:00,62.9,44.0,30.21,ENE,78,1.0,3.0,50,0.00,,,0.00,Wunderground v.1.15,2013-10-15 22:53:00,
2013-10-15 15:58:00,62.8,43.3,30.21,ENE,59,1.0,4.0,49,0.00,,,0.00,Wunderground v.1.15,2013-10-15 22:58:00,
2013-10-15 16:05:00,62.7,43.3,30.21,NE,53,1.0,2.0,49,0.00,,,0.00,Wunderground v.1.15,2013-10-15 23:05:00,
2013-10-15 16:10:00,62.5,42.5,30.21,ENE,73,2.0,7.0,48,0.00,,,0.00,Wunderground v.1.15,2013-10-15 23:10:00,
2013-10-15 16:16:00,62.3,42.9,30.20,NE,48,2.0,6.0,49,0.00,,,0.00,Wunderground v.1.15,2013-10-15 23:16:00,
2013-10-15 16:23:00,62.2,43.3,30.20,NE,49,2.0,6.0,50,0.00,,,0.00,Wunderground v.1.15,2013-10-15 23:23:00,
2013-10-15 16:29:00,62.0,44.7,30.20,NE,48,2.0,2.0,53,0.00,,,0.00,Wunderground v.1.15,2013-10-15 23:29:00,
2013-10-15 16:35:00,61.5,44.7,30.20,NE,49,1.0,1.0,54,0.00,,,0.00,Wunderground v.1.15,2013-10-15 23:35:00,
2013-10-15 16:40:00,61.1,45.7,30.20,NE,52,1.0,3.0,57,0.00,,,0.00,Wunderground v.1.15,2013-10-15 23:40:00,
2013-10-15 16:46:00,61.0,45.2,30.20,NE,49,2.0,2.0,56,0.00,,,0.00,Wunderground v.1.15,2013-10-15 23:46:00,
2013-10-15 16:52:00,60.7,45.4,30.20,NE,50,2.0,4.0,57,0.00,,,0.00,Wunderground v.1.15,2013-10-15 23:52:00,
2013-10-15 16:58:00,60.6,45.3,30.19,NE,56,2.0,3.0,57,0.00,,,0.00,Wunderground v.1.15,2013-10-15 23:58:00,
2013-10-15 17:04:00,60.4,46.0,30.19,NE,52,2.0,4.0,59,0.00,,,0.00,Wunderground v.1.15,2013-10-16 00:04:00,
2013-10-15 17:09:00,60.4,46.4,30.19,NE,40,2.0,5.0,60,0.00,,,0.00,Wunderground v.1.15,2013-10-16 00:09:00,
2013-10-15 17:15:00,60.4,46.9,30.19,NNE,13,2.0,2.0,61,0.00,,,0.00,Wunderground v.1.15,2013-10-16 00:15:00,
2013-10-15 17:21:00,60.3,46.8,30.18,NE,55,3.0,5.0,61,0.00,,,0.00,Wunderground v.1.15,2013-10-16 00:21:00,
2013-10-15 17:27:00,60.2,47.1,30.18,ENE,59,3.0,3.0,62,0.00,,,0.00,Wunderground v.1.15,2013-10-16 00:27:00,
2013-10-15 17:33:00,60.2,47.1,30.18,NNE,19,3.0,7.0,62,0.00,,,0.00,Wunderground v.1.15,2013-10-16 00:33:00,
2013-10-15 17:39:00,60.0,47.4,30.18,ENE,59,3.0,5.0,63,0.00,,,0.00,Wunderground v.1.15,2013-10-16 00:39:00,
2013-10-15 17:44:00,59.6,47.8,30.18,NNE,26,3.0,3.0,65,0.00,,,0.00,Wunderground v.1.15,2013-10-16 00:44:00,
2013-10-15 17:50:00,59.4,48.0,30.18,NNE,17,2.0,3.0,66,0.00,,,0.00,Wunderground v.1.15,2013-10-16 00:50:00,
2013-10-15 17:56:00,59.1,47.3,30.18,NE,50,2.0,4.0,65,0.00,,,0.00,Wunderground v.1.15,2013-10-16 00:56:00,
2013-10-15 18:02:00,59.0,48.1,30.18,NE,53,2.0,4.0,67,0.00,,,0.00,Wunderground v.1.15,2013-10-16 01:02:00,
2013-10-15 18:08:00,58.3,47.8,30.18,NE,46,2.0,3.0,68,0.00,,,0.00,Wunderground v.1.15,2013-10-16 01:08:00,
2013-10-15 18:13:00,58.0,47.9,30.17,NE,42,1.0,3.0,69,0.00,,,0.00,Wunderground v.1.15,2013-10-16 01:13:00,
2013-10-15 18:18:00,57.5,48.2,30.17,NE,42,2.0,3.0,71,0.00,,,0.00,Wunderground v.1.15,2013-10-16 01:18:00,
2013-10-15 18:24:00,56.8,48.6,30.17,NE,45,2.0,3.0,74,0.00,,,0.00,Wunderground v.1.15,2013-10-16 01:24:00,
2013-10-15 18:30:00,56.2,47.7,30.17,NE,52,2.0,5.0,73,0.00,,,0.00,Wunderground v.1.15,2013-10-16 01:30:00,
2013-10-15 18:36:00,56.0,46.7,30.17,NE,46,3.0,7.0,71,0.00,,,0.00,Wunderground v.1.15,2013-10-16 01:36:00,
2013-10-15 18:42:00,55.8,46.9,30.17,NE,38,2.0,7.0,72,0.00,,,0.00,Wunderground v.1.15,2013-10-16 01:42:00,
2013-10-15 18:47:00,55.7,47.2,30.17,NE,36,2.0,3.0,73,0.00,,,0.00,Wunderground v.1.15,2013-10-16 01:47:00,
2013-10-15 18:53:00,55.4,47.2,30.17,NNE,19,2.0,3.0,74,0.00,,,0.00,Wunderground v.1.15,2013-10-16 01:53:00,
2013-10-15 18:59:00,54.4,47.3,30.17,NE,53,1.0,2.0,77,0.00,,,0.00,Wunderground v.1.15,2013-10-16 01:59:00,
2013-10-15 19:05:00,53.1,47.1,30.17,NNE,28,1.0,1.0,80,0.00,,,0.00,Wunderground v.1.15,2013-10-16 02:05:00,
2013-10-15 19:11:00,52.4,47.1,30.17,NNE,19,1.0,2.0,82,0.00,,,0.00,Wunderground v.1.15,2013-10-16 02:11:00,
2013-10-15 19:17:00,51.9,46.9,30.17,NNE,20,1.0,2.0,83,0.00,,,0.00,Wunderground v.1.15,2013-10-16 02:17:00,
2013-10-15 19:23:00,51.3,46.9,30.17,NNE,19,1.0,2.0,85,0.00,,,0.00,Wunderground v.1.15,2013-10-16 02:23:00,
2013-10-15 19:29:00,50.9,46.9,30.17,NNE,19,0.0,1.0,86,0.00,,,0.00,Wunderground v.1.15,2013-10-16 02:29:00,
2013-10-15 19:35:00,50.5,46.8,30.16,NNE,19,0.0,0.0,87,0.00,,,0.00,Wunderground v.1.15,2013-10-16 02:35:00,
2013-10-15 19:41:00,50.2,46.5,30.16,NNE,19,0.0,0.0,87,0.00,,,0.00,Wunderground v.1.15,2013-10-16 02:41:00,
2013-10-15 19:46:00,50.0,46.6,30.16,NNE,19,0.0,0.0,88,0.00,,,0.00,Wunderground v.1.15,2013-10-16 02:46:00,
2013-10-15 19:51:00,49.8,46.4,30.17,NNE,19,0.0,0.0,88,0.00,,,0.00,Wunderground v.1.15,2013-10-16 02:51:00,
2013-10-15 19:57:00,49.7,46.3,30.17,NNE,19,0.0,0.0,88,0.00,,,0.00,Wunderground v.1.15,2013-10-16 02:57:00,
2013-10-15 20:03:00,49.8,46.1,30.16,NNE,19,0.0,0.0,87,0.00,,,0.00,Wunderground v.1.15,2013-10-16 03:03:00,
2013-10-15 20:08:00,50.0,46.0,30.16,NNE,19,0.0,0.0,86,0.00,,,0.00,Wunderground v.1.15,2013-10-16 03:08:00,
2013-10-15 20:14:00,49.9,45.9,30.16,NNE,19,0.0,0.0,86,0.00,,,0.00,Wunderground v.1.15,2013-10-16 03:14:00,
2013-10-15 20:20:00,49.7,45.7,30.16,NNE,19,0.0,0.0,86,0.00,,,0.00,Wunderground v.1.15,2013-10-16 03:20:00,
2013-10-15 20:25:00,49.6,45.6,30.16,NNE,19,0.0,0.0,86,0.00,,,0.00,Wunderground v.1.15,2013-10-16 03:25:00,
2013-10-15 20:31:00,49.6,45.6,30.16,NNE,19,0.0,0.0,86,0.00,,,0.00,Wunderground v.1.15,2013-10-16 03:31:00,
2013-10-15 20:36:00,49.7,45.4,30.16,NNE,19,0.0,0.0,85,0.00,,,0.00,Wunderground v.1.15,2013-10-16 03:36:00,
2013-10-15 20:42:00,49.8,45.5,30.16,NNE,19,0.0,0.0,85,0.00,,,0.00,Wunderground v.1.15,2013-10-16 03:42:00,
2013-10-15 20:48:00,49.8,45.5,30.16,NNE,19,0.0,0.0,85,0.00,,,0.00,Wunderground v.1.15,2013-10-16 03:48:00,
2013-10-15 20:54:00,49.7,45.4,30.16,NNE,19,0.0,0.0,85,0.00,,,0.00,Wunderground v.1.15,2013-10-16 03:54:00,
2013-10-15 21:00:00,49.3,45.0,30.16,NNE,19,0.0,0.0,85,0.00,,,0.00,Wunderground v.1.15,2013-10-16 04:00:00,
2013-10-15 21:01:00,49.1,45.1,30.16,NNE,19,0.0,0.0,86,0.00,,,0.00,Wunderground v.1.15,2013-10-16 04:01:00,
2013-10-15 21:02:00,49.1,45.1,30.16,NNE,19,0.0,0.0,86,0.00,,,0.00,Wunderground v.1.15,2013-10-16 04:02:00,
2013-10-15 21:05:00,49.0,45.0,30.16,NNE,19,0.0,0.0,86,0.00,,,0.00,Wunderground v.1.15,2013-10-16 04:05:00,
2013-10-15 21:07:00,48.8,44.8,30.16,NNE,19,0.0,0.0,86,0.00,,,0.00,Wunderground v.1.15,2013-10-16 04:07:00,
2013-10-15 21:08:00,48.7,44.7,30.16,NNE,19,0.0,0.0,86,0.00,,,0.00,Wunderground v.1.15,2013-10-16 04:08:00,
2013-10-15 21:14:00,48.4,44.4,30.16,NNE,19,0.0,0.0,86,0.00,,,0.00,Wunderground v.1.15,2013-10-16 04:14:00,
2013-10-15 21:15:00,48.3,44.6,30.16,NNE,19,0.0,0.0,87,0.00,,,0.00,Wunderground v.1.15,2013-10-16 04:15:00,
2013-10-15 21:21:00,48.2,44.8,30.16,NNE,19,0.0,0.0,88,0.00,,,0.00,Wunderground v.1.15,2013-10-16 04:21:00,
2013-10-15 21:27:00,47.9,44.5,30.16,NNE,19,0.0,0.0,88,0.00,,,0.00,Wunderground v.1.15,2013-10-16 04:27:00,
2013-10-15 21:32:00,47.6,44.2,30.16,NNE,19,0.0,0.0,88,0.00,,,0.00,Wunderground v.1.15,2013-10-16 04:32:00,
2013-10-15 21:38:00,47.6,44.5,30.16,NNE,19,0.0,0.0,89,0.00,,,0.00,Wunderground v.1.15,2013-10-16 04:38:00,
2013-10-15 21:44:00,47.6,44.2,30.16,NNE,19,0.0,0.0,88,0.00,,,0.00,Wunderground v.1.15,2013-10-16 04:44:00,
2013-10-15 21:50:00,47.7,44.3,30.16,NNE,19,0.0,0.0,88,0.00,,,0.00,Wunderground v.1.15,2013-10-16 04:50:00,
2013-10-15 21:56:00,47.5,44.4,30.16,NNE,19,0.0,0.0,89,0.00,,,0.00,Wunderground v.1.15,2013-10-16 04:56:00,
2013-10-15 22:02:00,47.7,44.6,30.16,NNE,19,0.0,0.0,89,0.00,,,0.00,Wunderground v.1.15,2013-10-16 05:02:00,
2013-10-15 22:08:00,47.4,44.0,30.16,NNE,19,0.0,0.0,88,0.00,,,0.00,Wunderground v.1.15,2013-10-16 05:08:00,
2013-10-15 22:14:00,47.2,44.1,30.16,NNE,19,0.0,0.0,89,0.00,,,0.00,Wunderground v.1.15,2013-10-16 05:14:00,
2013-10-15 22:19:00,47.0,43.9,30.16,NNE,19,0.0,0.0,89,0.00,,,0.00,Wunderground v.1.15,2013-10-16 05:19:00,
2013-10-15 22:25:00,46.8,43.7,30.16,NNE,19,0.0,0.0,89,0.00,,,0.00,Wunderground v.1.15,2013-10-16 05:25:00,
2013-10-15 22:30:00,47.0,43.9,30.16,NNE,19,0.0,0.0,89,0.00,,,0.00,Wunderground v.1.15,2013-10-16 05:30:00,
2013-10-15 22:36:00,46.9,43.8,30.16,NNE,19,0.0,0.0,89,0.00,,,0.00,Wunderground v.1.15,2013-10-16 05:36:00,
2013-10-15 22:42:00,46.7,43.6,30.16,NNE,19,0.0,0.0,89,0.00,,,0.00,Wunderground v.1.15,2013-10-16 05:42:00,
2013-10-15 22:47:00,46.2,43.1,30.16,NNE,19,0.0,0.0,89,0.00,,,0.00,Wunderground v.1.15,2013-10-16 05:47:00,
2013-10-15 22:53:00,46.1,43.3,30.16,NNE,19,0.0,0.0,90,0.00,,,0.00,Wunderground v.1.15,2013-10-16 05:53:00,
2013-10-15 22:59:00,46.0,43.5,30.17,NNE,19,0.0,0.0,91,0.00,,,0.00,Wunderground v.1.15,2013-10-16 05:59:00,
2013-10-15 23:05:00,45.7,42.9,30.16,NNE,19,0.0,0.0,90,0.00,,,0.00,Wunderground v.1.15,2013-10-16 06:05:00,
2013-10-15 23:11:00,45.7,43.2,30.16,NNE,19,0.0,0.0,91,0.00,,,0.00,Wunderground v.1.15,2013-10-16 06:11:00,
2013-10-15 23:16:00,45.4,42.6,30.16,NNE,19,0.0,0.0,90,0.00,,,0.00,Wunderground v.1.15,2013-10-16 06:16:00,
2013-10-15 23:23:00,45.5,43.0,30.17,NNE,19,0.0,0.0,91,0.00,,,0.00,Wunderground v.1.15,2013-10-16 06:23:00,
2013-10-15 23:29:00,45.2,42.7,30.16,NNE,19,0.0,0.0,91,0.00,,,0.00,Wunderground v.1.15,2013-10-16 06:29:00,
2013-10-15 23:35:00,45.2,43.0,30.16,NNE,19,0.0,0.0,92,0.00,,,0.00,Wunderground v.1.15,2013-10-16 06:35:00,
2013-10-15 23:41:00,45.1,42.6,30.16,NNE,19,0.0,0.0,91,0.00,,,0.00,Wunderground v.1.15,2013-10-16 06:41:00,
2013-10-15 23:46:00,45.0,42.8,30.16,NNE,19,0.0,0.0,92,0.00,,,0.00,Wunderground v.1.15,2013-10-16 06:46:00,
2013-10-15 23:53:00,45.0,42.8,30.16,NNE,19,0.0,0.0,92,0.00,,,0.00,Wunderground v.1.15,2013-10-16 06:53:00,
2013-10-15 23:59:00,44.7,42.2,30.16,NNE,19,0.0,0.0,91,0.00,,,0.00,Wunderground v.1.15,2013-10-16 06:59:00,